Location: Caltech
(34.1382°N, 118.1253°W)
Time: 13:25:10
(UTC-07:00)

Iridium 49 - Visible Passes

Search period start: 24 July 2016 00:00
Search period end: 03 August 2016 00:00
Orbit: 776 x 779 km, 86.4° (Epoch: 24 July)

Date Brightness Start Highest point End Pass type
(mag) Time Alt. Az. Time Alt. Az. Time Alt. Az.
25 Jul 9.3 05:31:28 10° ESE 05:33:40 13° E 05:35:52 10° NE visible
28 Jul 8.9 05:29:57 10° SE 05:33:34 19° E 05:37:10 10° NE visible
31 Jul 8.3 05:29:07 10° SE 05:33:31 28° E 05:37:55 10° NNE visible
01 Aug 9.0 04:57:28 10° ESE 05:00:16 15° E 05:03:04 10° NE visible
